CPA278 EGLL-VHHH

Flight info

Callsign CPA278
Flight time N/A
Altitude 31000
Route DET L6 DVR UL9 KONAN DCT KOK DCT DENOX DCT MATUG DCT AMASI DCT BOMBI/N0482F330 DCT TENLO DCT DEXIT DCT BEGLA DCT BALUX DCT BKS DCT EVRIK DCT EMPOS DCT IRLOX DCT OPT DCT LUGEB DCT UDROS DCT BAMUP DCT ROLIN/N0476F350 DCT FOQUS DCT LAGAS DCT DISKA M737 VERCA M747 SUBUT T916 BALUN/K0891F350 T916 KUNAS N193 SR L163 TISIB L141 KAMUD/K0889S1130 W186 SADAN Y1 OMBON W245 OVRAL B330 QNX/K0883S1190 B330 KWE W181 DUDIT A599 POU R473 SIERA
Aircraft A346/H-SDE2E3FGHIJ3J4J5M1RWXY/LB1D1

Departure

Time N/A
Airport London Heathrow Airport (EGLL)

Arrival

Time 2026-04-30 19:34
Airport Hong Kong International Airport (VHHH)
Time Latitude Longitude Altitude Speed Heading
2026-04-30 14:13 50.76918 4.61311 31301 ft 461 kts 107°
2026-04-30 14:13 50.75043 4.71062 31284 ft 461 kts 107°
2026-04-30 14:14 50.73173 4.80747 31278 ft 461 kts 107°
2026-04-30 14:14 50.71307 4.90368 31286 ft 461 kts 107°
2026-04-30 14:15 50.69410 5.00095 31293 ft 460 kts 107°
2026-04-30 14:15 50.67515 5.09763 31302 ft 461 kts 107°
2026-04-30 14:16 50.65623 5.19347 31301 ft 460 kts 107°
2026-04-30 14:16 50.63701 5.29057 31304 ft 460 kts 107°
2026-04-30 14:17 50.61800 5.38618 31289 ft 460 kts 107°
2026-04-30 14:17 50.59863 5.48308 31284 ft 460 kts 107°
2026-04-30 14:18 50.57940 5.57874 31290 ft 460 kts 107°
2026-04-30 14:18 50.55022 5.72298 31285 ft 461 kts 107°
2026-04-30 14:19 50.52085 5.86718 31295 ft 461 kts 107°
2026-04-30 14:20 50.50116 5.96322 31307 ft 461 kts 107°
2026-04-30 14:20 50.47150 6.10686 31310 ft 460 kts 107°
2026-04-30 14:21 50.45169 6.20237 31318 ft 460 kts 107°
2026-04-30 14:22 50.42172 6.34746 31307 ft 459 kts 105°
2026-04-30 14:22 50.39971 6.49372 31312 ft 459 kts 101°
2026-04-30 14:23 50.33379 6.96373 31359 ft 460 kts 101°
2026-04-30 14:24 50.31279 7.11060 31358 ft 460 kts 101°
2026-04-30 14:25 50.28454 7.30605 31356 ft 460 kts 101°
2026-04-30 14:26 50.26301 7.45279 31358 ft 461 kts 101°
2026-04-30 14:27 50.24130 7.59970 31356 ft 461 kts 101°
2026-04-30 14:27 50.22684 7.69737 31358 ft 461 kts 101°
2026-04-30 14:28 50.20489 7.84429 31371 ft 461 kts 101°
2026-04-30 14:28 50.19019 7.94168 31370 ft 460 kts 101°
2026-04-30 14:29 50.16302 8.12042 31377 ft 460 kts 101°
2026-04-30 14:31 50.11147 8.37524 31388 ft 462 kts 105°
2026-04-30 14:31 50.08177 8.51880 31361 ft 462 kts 105°
2026-04-30 14:32 50.05538 8.64596 31800 ft 462 kts 105°
2026-04-30 14:32 50.04548 8.69342 32196 ft 459 kts 105°
2026-04-30 14:33 50.03562 8.74063 32530 ft 458 kts 105°
2026-04-30 14:33 50.01590 8.83478 33059 ft 457 kts 105°
2026-04-30 14:33 50.00604 8.88174 33307 ft 457 kts 105°
2026-04-30 14:34 49.98624 8.97563 33359 ft 456 kts 105°
2026-04-30 14:34 49.96636 9.06950 33367 ft 456 kts 105°
2026-04-30 14:35 49.93637 9.21005 33376 ft 456 kts 104°
2026-04-30 14:36 49.91634 9.30360 33371 ft 456 kts 104°
2026-04-30 14:36 49.89621 9.39718 33366 ft 457 kts 105°
2026-04-30 14:37 49.87601 9.49058 33368 ft 456 kts 105°
2026-04-30 14:37 49.85570 9.58398 33391 ft 456 kts 104°
2026-04-30 14:38 49.83534 9.67715 33374 ft 455 kts 104°
2026-04-30 14:38 49.81497 9.77016 33370 ft 455 kts 104°
2026-04-30 14:39 49.79453 9.86303 33370 ft 455 kts 104°
2026-04-30 14:39 49.77397 9.95599 33375 ft 455 kts 104°
2026-04-30 14:40 49.74302 10.09494 33393 ft 455 kts 104°
2026-04-30 14:40 49.72236 10.18738 33399 ft 455 kts 104°
2026-04-30 14:41 49.70160 10.27981 33399 ft 455 kts 104°
2026-04-30 14:41 49.68075 10.37220 33386 ft 455 kts 104°
2026-04-30 14:42 49.65979 10.46444 33395 ft 454 kts 104°
2026-04-30 14:42 49.63888 10.55634 33389 ft 453 kts 104°
2026-04-30 14:43 49.61805 10.64754 33390 ft 453 kts 104°
2026-04-30 14:43 49.59698 10.73927 33391 ft 453 kts 104°
2026-04-30 14:44 49.57584 10.83089 33415 ft 453 kts 104°
2026-04-30 14:44 49.55456 10.92252 33392 ft 451 kts 104°
2026-04-30 14:45 49.53339 11.01354 33390 ft 451 kts 104°
2026-04-30 14:45 49.51016 11.10362 33389 ft 453 kts 107°
2026-04-30 14:46 49.48583 11.19329 33387 ft 453 kts 107°
2026-04-30 14:46 49.46141 11.28274 33416 ft 452 kts 107°
2026-04-30 14:47 49.43703 11.37172 33399 ft 451 kts 107°
2026-04-30 14:47 49.41262 11.46057 33397 ft 451 kts 107°
2026-04-30 14:48 49.38813 11.54932 33411 ft 451 kts 107°
2026-04-30 14:48 49.36354 11.63811 33401 ft 452 kts 107°
2026-04-30 14:49 49.32047 11.79261 33418 ft 449 kts 107°
2026-04-30 14:49 49.19771 12.22773 33411 ft 449 kts 107°
2026-04-30 14:50 49.00716 12.88814 33409 ft 449 kts 107°
2026-04-30 14:51 48.81147 13.54778 33409 ft 451 kts 107°
2026-04-30 14:52 48.63254 14.21650 33415 ft 453 kts 104°
2026-04-30 14:52 48.45327 14.89624 33423 ft 459 kts 105°
2026-04-30 14:53 48.26995 15.57128 33414 ft 463 kts 106°
2026-04-30 14:54 48.16256 15.95819 33416 ft 470 kts 107°
2026-04-30 14:55 48.12449 16.09399 33410 ft 472 kts 107°
2026-04-30 14:56 48.07320 16.27540 33401 ft 472 kts 108°
2026-04-30 14:57 48.03459 16.41127 33415 ft 474 kts 108°
2026-04-30 14:58 47.98247 16.59317 33393 ft 476 kts 108°
2026-04-30 14:58 47.94316 16.72947 33387 ft 476 kts 108°
2026-04-30 15:00 47.87725 16.95626 33388 ft 476 kts 109°
2026-04-30 15:01 47.82560 17.13769 33407 ft 475 kts 105°
2026-04-30 15:01 47.79319 17.27661 33377 ft 475 kts 105°
2026-04-30 15:02 47.77143 17.36953 33377 ft 476 kts 105°
2026-04-30 15:03 47.71656 17.60206 33379 ft 479 kts 105°
2026-04-30 15:04 47.66068 17.83596 33368 ft 481 kts 105°
2026-04-30 15:06 47.60422 18.06996 33370 ft 483 kts 106°
2026-04-30 15:07 47.55853 18.25743 33365 ft 483 kts 106°
2026-04-30 15:08 47.51253 18.44471 33358 ft 484 kts 107°
2026-04-30 15:09 47.45449 18.67875 33363 ft 485 kts 107°
2026-04-30 15:10 47.40774 18.86540 33347 ft 486 kts 107°
2026-04-30 15:11 47.33660 19.14619 33338 ft 486 kts 108°
2026-04-30 15:13 47.27428 19.37835 33340 ft 487 kts 109°
2026-04-30 15:14 47.18607 19.70294 33343 ft 488 kts 109°
2026-04-30 15:17 47.07119 20.11928 33345 ft 488 kts 110°
2026-04-30 15:19 46.97210 20.47263 33331 ft 489 kts 110°
2026-04-30 17:39 39.57494 87.79203 35009 ft 526 kts 112°
2026-04-30 17:42 39.44455 88.23771 35007 ft 531 kts 114°
2026-04-30 17:43 39.37839 88.46100 35006 ft 531 kts 114°
2026-04-30 17:44 39.30284 88.71390 35014 ft 532 kts 114°
2026-04-30 17:47 39.18173 89.11419 35034 ft 531 kts 115°
2026-04-30 17:48 39.08701 89.42337 35062 ft 529 kts 116°
2026-04-30 17:50 38.97779 89.77522 35098 ft 529 kts 116°
2026-04-30 17:52 38.89524 90.03835 35119 ft 530 kts 117°
2026-04-30 17:54 38.76984 90.43326 35152 ft 530 kts 117°
2026-04-30 17:56 38.66036 90.78496 35145 ft 533 kts 114°
2026-04-30 17:58 38.58577 91.05253 35143 ft 532 kts 115°
2026-04-30 18:00 38.48529 91.40719 35121 ft 530 kts 115°
2026-04-30 18:01 38.42199 91.62834 35113 ft 529 kts 116°
2026-04-30 18:02 38.34572 91.89201 35114 ft 527 kts 116°
2026-04-30 18:04 38.26916 92.15421 35134 ft 526 kts 117°
2026-04-30 18:06 38.16538 92.50311 35137 ft 525 kts 119°
2026-04-30 18:08 38.05705 92.79611 35126 ft 524 kts 122°
2026-04-30 18:10 37.93172 93.12944 35109 ft 525 kts 122°
2026-04-30 18:11 37.82104 93.42085 35092 ft 524 kts 122°
2026-04-30 18:13 37.74165 93.62820 35087 ft 523 kts 122°
2026-04-30 18:14 37.66191 93.83507 35069 ft 523 kts 123°
2026-04-30 18:15 37.56625 94.08141 35078 ft 519 kts 123°
2026-04-30 18:16 37.50238 94.24478 35062 ft 517 kts 123°
2026-04-30 18:17 37.47053 94.32599 35060 ft 516 kts 123°
2026-04-30 18:18 37.42268 94.44750 35053 ft 516 kts 123°
2026-04-30 18:18 37.39089 94.52798 35054 ft 516 kts 123°
2026-04-30 18:19 37.35890 94.60877 35039 ft 515 kts 123°
2026-04-30 18:19 37.32691 94.68937 35043 ft 515 kts 123°
2026-04-30 18:20 37.29484 94.76992 35034 ft 515 kts 123°
2026-04-30 18:20 37.26274 94.85034 35036 ft 515 kts 123°
2026-04-30 18:21 37.23058 94.93072 35025 ft 515 kts 123°
2026-04-30 18:21 37.19829 95.01116 35018 ft 514 kts 123°
2026-04-30 18:22 37.16610 95.09120 35008 ft 513 kts 123°
2026-04-30 18:22 37.11770 95.21114 34963 ft 513 kts 123°
2026-04-30 18:23 37.08543 95.29076 34986 ft 511 kts 123°
2026-04-30 18:23 37.05320 95.37017 34970 ft 511 kts 123°
2026-04-30 18:24 37.00467 95.48917 34965 ft 511 kts 123°
2026-04-30 18:25 36.97297 95.56902 34963 ft 512 kts 122°
2026-04-30 18:25 36.92597 95.68917 34951 ft 512 kts 122°
2026-04-30 18:26 36.87858 95.80908 34940 ft 513 kts 123°
2026-04-30 18:27 36.83091 95.92891 34930 ft 512 kts 122°
2026-04-30 18:28 36.77609 96.06624 34935 ft 511 kts 122°
2026-04-30 18:28 36.41846 96.96862 34910 ft 513 kts 122°
2026-04-30 18:29 36.09583 97.77851 34954 ft 512 kts 121°
2026-04-30 18:30 35.78069 98.58373 35056 ft 514 kts 121°
2026-04-30 18:31 35.56184 99.13084 35013 ft 515 kts 122°
2026-04-30 18:32 35.31670 99.73299 34956 ft 513 kts 122°
2026-04-30 18:33 35.06618 100.33723 34926 ft 519 kts 121°
2026-04-30 18:33 34.81506 100.93225 34903 ft 519 kts 121°
2026-04-30 18:34 34.56112 101.52339 34875 ft 514 kts 121°
2026-04-30 18:35 34.38864 101.91901 34867 ft 512 kts 121°
2026-04-30 18:35 34.21649 102.30915 34853 ft 514 kts 121°
2026-04-30 18:36 33.96281 102.89895 34769 ft 515 kts 120°
2026-04-30 18:37 33.70755 103.48424 34781 ft 516 kts 120°
2026-04-30 18:37 33.53599 103.87198 34833 ft 516 kts 120°
2026-04-30 18:38 33.35137 104.24754 34880 ft 513 kts 139°
2026-04-30 18:38 33.19931 104.35727 34899 ft 501 kts 161°
2026-04-30 18:38 33.03605 104.44292 34909 ft 502 kts 161°
2026-04-30 18:39 32.70759 104.58801 34934 ft 489 kts 177°
2026-04-30 18:39 32.36966 104.60629 34961 ft 485 kts 183°
2026-04-30 18:40 32.02160 104.62561 34944 ft 484 kts 184°
2026-04-30 18:40 31.67331 104.64310 34948 ft 481 kts 184°
2026-04-30 18:41 31.33347 104.65641 34938 ft 482 kts 184°
2026-04-30 18:41 30.99460 104.67339 34932 ft 487 kts 180°
2026-04-30 18:42 30.65506 104.71172 34916 ft 488 kts 180°
2026-04-30 18:42 30.14884 104.76820 34920 ft 489 kts 180°
2026-04-30 18:45 28.49488 105.30911 34858 ft 511 kts 156°
2026-04-30 18:45 28.33774 105.40364 34852 ft 512 kts 156°
2026-04-30 18:46 28.01642 105.57558 34880 ft 502 kts 169°
2026-04-30 18:46 27.68034 105.68562 34919 ft 511 kts 156°
2026-04-30 18:47 27.35919 105.86009 34965 ft 510 kts 158°
2026-04-30 18:47 27.04278 106.04878 34981 ft 518 kts 142°
2026-04-30 18:47 26.92427 106.20372 35007 ft 523 kts 128°
2026-04-30 18:48 26.86793 106.28838 35017 ft 524 kts 129°
2026-04-30 18:48 26.82399 106.35358 35036 ft 523 kts 129°
2026-04-30 18:49 26.77994 106.41863 35023 ft 524 kts 129°
2026-04-30 18:49 26.73592 106.48362 35029 ft 523 kts 129°
2026-04-30 18:50 26.69186 106.54851 35056 ft 523 kts 129°
2026-04-30 18:50 26.64775 106.61333 35067 ft 523 kts 129°
2026-04-30 18:51 26.60356 106.67809 35085 ft 523 kts 129°
2026-04-30 18:51 26.55935 106.74276 35073 ft 524 kts 128°
2026-04-30 18:52 26.51323 106.80571 35090 ft 523 kts 134°
2026-04-30 18:52 26.46225 106.86348 35089 ft 522 kts 137°
2026-04-30 18:53 26.41036 106.92006 35064 ft 520 kts 137°
2026-04-30 18:53 26.35863 106.97657 35069 ft 520 kts 137°
2026-04-30 18:54 26.30743 107.03259 35065 ft 520 kts 137°
2026-04-30 18:54 26.25590 107.08925 35077 ft 521 kts 137°
2026-04-30 18:55 26.20439 107.14607 35077 ft 521 kts 137°
2026-04-30 18:55 26.12698 107.23107 35073 ft 521 kts 137°
2026-04-30 18:56 25.81125 107.57524 35074 ft 519 kts 137°
2026-04-30 18:57 25.40354 107.96425 35058 ft 509 kts 165°
2026-04-30 18:57 25.22943 107.99195 35053 ft 505 kts 177°
2026-04-30 18:57 25.05312 108.01279 35046 ft 506 kts 176°
2026-04-30 18:58 24.51798 108.07748 35024 ft 506 kts 176°
2026-04-30 18:59 23.99215 108.14127 35037 ft 504 kts 176°
2026-04-30 19:00 23.79642 108.60180 35047 ft 513 kts 93°
2026-04-30 19:00 23.78456 108.80279 35050 ft 513 kts 93°
2026-04-30 19:01 23.67589 109.58076 35038 ft 514 kts 102°
2026-04-30 19:02 23.55812 110.14994 35047 ft 513 kts 102°
2026-04-30 19:03 23.40019 110.91175 35035 ft 515 kts 103°
2026-04-30 19:04 23.24263 111.66707 35044 ft 517 kts 103°
2026-04-30 19:05 23.08314 112.42572 35049 ft 518 kts 103°
2026-04-30 19:06 22.97687 113.18816 33625 ft 512 kts 138°
2026-04-30 19:06 22.93445 113.22079 32262 ft 512 kts 156°
2026-04-30 19:06 22.86741 113.24596 30772 ft 509 kts 166°
2026-04-30 19:07 22.79947 113.26811 29188 ft 510 kts 165°
2026-04-30 19:07 22.76554 113.27954 28420 ft 509 kts 165°
2026-04-30 19:08 22.69858 113.30256 27344 ft 498 kts 165°
2026-04-30 19:08 22.63332 113.32517 26330 ft 487 kts 165°
2026-04-30 19:08 22.60119 113.33634 25877 ft 482 kts 165°
2026-04-30 19:09 22.53793 113.35838 24828 ft 474 kts 165°
2026-04-30 19:09 22.50663 113.36918 24352 ft 470 kts 165°
2026-04-30 19:09 22.47534 113.37997 23894 ft 466 kts 165°
2026-04-30 19:10 22.41409 113.40105 22898 ft 457 kts 166°
2026-04-30 19:10 22.35463 113.42150 21999 ft 446 kts 166°
2026-04-30 19:11 22.32519 113.43160 21553 ft 442 kts 166°
2026-04-30 19:11 22.26714 113.45152 20670 ft 434 kts 166°
2026-04-30 19:11 22.23850 113.46136 20239 ft 430 kts 166°
2026-04-30 19:12 22.21013 113.47120 19802 ft 427 kts 166°
2026-04-30 19:12 22.18208 113.48144 19368 ft 424 kts 165°
2026-04-30 19:12 22.15427 113.49174 18945 ft 421 kts 165°
2026-04-30 19:13 22.09912 113.51205 18046 ft 416 kts 165°
2026-04-30 19:13 22.04466 113.53194 17145 ft 410 kts 165°
2026-04-30 19:13 22.01776 113.54176 16715 ft 407 kts 165°
2026-04-30 19:14 21.99120 113.55164 16292 ft 404 kts 163°
2026-04-30 19:14 21.96494 113.56300 15863 ft 403 kts 160°
2026-04-30 19:14 21.93928 113.57481 15437 ft 400 kts 160°
2026-04-30 19:14 21.91379 113.58658 15025 ft 397 kts 160°
2026-04-30 19:15 21.88846 113.59826 14607 ft 395 kts 160°
2026-04-30 19:15 21.83830 113.62133 13893 ft 386 kts 160°
2026-04-30 19:15 21.81397 113.63252 13750 ft 373 kts 160°
2026-04-30 19:16 21.79051 113.64329 13622 ft 360 kts 160°
2026-04-30 19:16 21.76781 113.65370 13499 ft 348 kts 160°
2026-04-30 19:16 21.72492 113.67339 13372 ft 322 kts 161°
2026-04-30 19:17 21.70473 113.68294 13299 ft 313 kts 155°
2026-04-30 19:17 21.68151 113.72041 12900 ft 315 kts 92°
2026-04-30 19:17 21.68554 113.74311 12613 ft 308 kts 60°
2026-04-30 19:18 21.70425 113.76473 12276 ft 295 kts 34°
2026-04-30 19:18 21.72578 113.78243 11937 ft 289 kts 35°
2026-04-30 19:18 21.74136 113.79610 11619 ft 291 kts 37°
2026-04-30 19:19 21.75734 113.81095 11313 ft 313 kts 39°
2026-04-30 19:19 21.77149 113.82898 11148 ft 321 kts 64°
2026-04-30 19:19 21.76536 113.88101 11003 ft 314 kts 137°
2026-04-30 19:20 21.73362 113.89539 11014 ft 296 kts 187°
2026-04-30 19:20 21.70782 113.88669 11011 ft 286 kts 218°
2026-04-30 19:20 21.65085 113.82747 11003 ft 283 kts 226°
2026-04-30 19:21 21.63010 113.79304 10992 ft 279 kts 264°
2026-04-30 19:21 21.68127 113.74224 10996 ft 308 kts
2026-04-30 19:22 21.74392 113.79708 11008 ft 319 kts 41°
2026-04-30 19:22 21.78336 113.85367 10679 ft 315 kts 52°
2026-04-30 19:23 21.83603 113.89353 9544 ft 307 kts 26°
2026-04-30 19:24 21.87529 113.89508 8744 ft 284 kts 329°
2026-04-30 19:24 21.89215 113.88521 8441 ft 281 kts 328°
2026-04-30 19:24 21.92720 113.86569 7738 ft 280 kts 330°
2026-04-30 19:25 21.97988 113.83871 6496 ft 278 kts 332°
2026-04-30 19:26 22.01467 113.82129 5414 ft 273 kts 334°
2026-04-30 19:26 22.04862 113.80441 4717 ft 268 kts 335°
2026-04-30 19:26 22.06563 113.79596 4383 ft 269 kts 335°
2026-04-30 19:27 22.09954 113.77909 3789 ft 268 kts 336°
2026-04-30 19:27 22.13343 113.76220 3227 ft 265 kts 336°
2026-04-30 19:28 22.15017 113.75385 2974 ft 262 kts 336°
2026-04-30 19:28 22.18104 113.73848 2920 ft 226 kts 336°
2026-04-30 19:29 22.20930 113.72506 2823 ft 220 kts 351°
2026-04-30 19:29 22.22380 113.72703 2621 ft 207 kts 28°
2026-04-30 19:30 22.25636 113.75172 1922 ft 182 kts 36°
2026-04-30 19:30 22.27059 113.77224 1604 ft 163 kts 68°
2026-04-30 19:31 22.27821 113.79497 1587 ft 156 kts 72°
2026-04-30 19:31 22.28166 113.80606 1588 ft 155 kts 72°
2026-04-30 19:31 22.28863 113.82824 1404 ft 155 kts 71°
2026-04-30 19:32 22.29213 113.83925 1179 ft 154 kts 71°
2026-04-30 19:32 22.29557 113.85008 1007 ft 154 kts 70°
2026-04-30 19:32 22.29905 113.86101 822 ft 153 kts 70°
2026-04-30 19:32 22.30260 113.87193 576 ft 153 kts 70°
2026-04-30 19:33 22.30606 113.88274 372 ft 152 kts 71°
2026-04-30 19:33 22.30951 113.89357 178 ft 151 kts 70°
2026-04-30 19:33 22.31292 113.90412 40 ft 141 kts 70°
2026-04-30 19:33 22.31556 113.91233 40 ft 87 kts 71°
2026-04-30 19:34 22.31701 113.91684 41 ft 43 kts 71°
2026-04-30 19:34 22.31784 113.91972 41 ft 35 kts 80°
2026-04-30 19:34 22.31763 113.92282 41 ft 3 kts 111°
2026-04-30 19:35 22.31736 113.92290 41 ft 8 kts 201°
2026-04-30 19:35 22.31685 113.92207 41 ft 19 kts 247°
2026-04-30 19:35 22.31640 113.92071 41 ft 13 kts 246°
2026-04-30 19:35 22.31558 113.92045 41 ft 15 kts 166°
2026-04-30 19:36 22.31460 113.92082 41 ft 11 kts 160°
2026-04-30 19:36 22.31424 113.92105 41 ft 7 kts 124°
2026-04-30 19:36 22.31357 113.92253 41 ft 14 kts 115°
2026-04-30 19:37 22.31343 113.92287 41 ft 4 kts 110°
2026-04-30 19:37 22.31348 113.92314 41 ft 5 kts 58°
2026-04-30 19:37 22.31368 113.92329 41 ft 3 kts 24°
2026-04-30 19:37 22.31377 113.92334 41 ft 1 kts 26°
2026-04-30 19:38 22.31396 113.92344 41 ft 4 kts 26°
2026-04-30 19:38 22.31403 113.92348 41 ft 2 kts 26°
2026-04-30 19:38 22.31410 113.92352 41 ft 0 kts 26°